Skip Page Navigation
NASA JPL Caltech
NASA Logo - Jet Propulsion Laboratory + View the NASA Portal
+ Center for Near-Earth Object Studies
JPL Home Earth Solar System Stars & Galaxies Technology
JPL Solar System Dynamics
BODIES ORBITS EPHEMERIDES TOOLS PHYSICAL DATA DISCOVERY FAQ SITE MAP
JPL Small-Body Database Browser
Search: [ help ]  
100272 (1994 VX6)
Classification: Main-belt Asteroid          SPK-ID: 2100272
Ephemeris | Orbit Diagram | Orbital Elements | Mission Design | Physical Parameters | Discovery Circumstances | Close-Approach Data ]

[ show orbit diagram ]
Orbital Elements at Epoch 2459200.5 (2020-Dec-17.0) TDB
Reference: JPL 18 (heliocentric ecliptic J2000)
 Element Value Uncertainty (1-sigma)   Units 
e .3506641039114279 5.5973e-08  
a 3.099049822447268 2.792e-08 au
q 2.012324293481926 1.8202e-07 au
i 9.86806712597433 7.2531e-06 deg
node 66.55525525882817 2.576e-05 deg
peri 298.18847475 2.7917e-05 deg
M 305.4499583229381 1.6993e-05 deg
tp 2459502.449177054712
(2021-Oct-14.94917705)
9.7361e-05 TDB
period 1992.69698789992
5.46
2.6929e-05
7.373e-08
d
yr
n .1806596799142051 2.4414e-09 deg/d
Q 4.185775351412609 3.7711e-08 au
  Orbit Determination Parameters
   # obs. used (total)      719  
   data-arc span      9391 days (25.71 yr)  
   first obs. used      1994-11-01  
   last obs. used      2020-07-18  
   planetary ephem.      DE431  
   SB-pert. ephem.      SB431-N16  
   condition code      0  
   norm. resid. RMS      .54795  
   source      ORB  
   producer      Otto Matic  
   solution date      2020-Nov-12 20:07:04  

Additional Information
 Earth MOID = 1.03199 au 
 Jupiter MOID = 1.41071 au 
 T_jup = 3.103 
[ show covariance matrix ]

Ephemeris | Orbit Diagram | Orbital Elements | Mission Design | Physical Parameters | Discovery Circumstances | Close-Approach Data ]

Physical Parameter Table
Parameter Symbol Value Units Sigma Reference Notes
absolute magnitude H 14.17   n/a E2021B55  
diameter diameter 5.144 km 0.169 urn:nasa:pds:neowise_diameters_albedos::2.0[mainbelt] (http://adsabs.harvard.edu/abs/2011ApJ...741...68M)  
geometric albedo albedo 0.172   0.009 urn:nasa:pds:neowise_diameters_albedos::2.0[mainbelt] (http://adsabs.harvard.edu/abs/2011ApJ...741...68M)  

100272 (1994 VX6)          Discovered 1994-Nov-01 by Endate, K., Watanabe, K. at Kitami
Reference: 20051019/Numbers.arcLast Updated: 2005-10-26

[ show close-approach data ]
Alternate Designations
 1994 VX6 = 2000 WM158 
Ephemeris | Orbit Diagram | Orbital Elements | Mission Design | Physical Parameters | Discovery Circumstances | Close-Approach Data ]
ABOUT SSD CREDITS/AWARDS PRIVACY/COPYRIGHT GLOSSARY LINKS
FirstGov 2021-Apr-11 17:16 UT
(server date/time)  
NASA Home Page
Site Manager:   Ryan S. Park
Webmaster  Alan B. Chamberlin